Regional Weather Roundup
Issued by NWS Green Bay, WI

Home | Current Version | Previous Version | Graphics & Text | Print | Product List | Glossary Off
Versions: 1 2 3 4 5 6 7 8 9 10 11 12 13 14 15 16 17 18 19 20 21 22 23 24 25 26 27 28 29 30 31 32 33 34 35 36 37 38 39 40 41 42 43 44 45 46 47 48 49 50

000
ASUS43 KGRB 250211
RWRGRB

NORTH-CENTRAL AND NORTHEAST WISCONSIN REGIONAL WEATHER ROUNDUP
NATIONAL WEATHER SERVICE GREEN BAY WI
900 PM CDT SUN MAY 24 2015

WIZ005-009-010>012-018-019-250300-
NORTH CENTRAL WISCONSIN

CITY           SKY/WX    TMP DP  RH WIND       PRES   REMARKS
IRONWOOD       CLOUDY    61  54  77 S6        29.95S
MANITOWISH WTR LGT RAIN  56  56 100 CALM      29.98F
ARBOR VITAE    DRIZZLE   57  55  93 SE7       29.98F
EAGLE RIVER    RAIN      56  56  98 CALM      29.99F
LAND O LAKES   LGT RAIN  57  56  95 CALM      30.01S
RHINELANDER    LGT RAIN  56  54  93 E7        29.99F
PHILLIPS       DRIZZLE   56  55  98 E5        29.96F
ANTIGO         RAIN      55  55  99 SE8       29.99S
TOMAHAWK       RAIN      55  54  95 E5        29.97F
MERRILL        HVY RAIN  56  56 100 CALM      29.97F
$$

WIZ013-073-250300-
NORTHEAST WISCONSIN

CITY           SKY/WX    TMP DP  RH WIND       PRES   REMARKS
IRON MOUNTAIN  LGT RAIN  58  56  93 SE9       30.00F FOG
MARINETTE      CLOUDY    55  52  88 SE6       30.01F
OCONTO         CLOUDY    55  55 100 E3        30.01F
$$

WIZ017-030-035>037-045-250300-
CENTRAL WISCONSIN

CITY           SKY/WX    TMP DP  RH WIND       PRES   REMARKS
MEDFORD        LGT RAIN  55  55  99 E7        29.94F
WAUSAU         RAIN      56  55  97 SE5       29.94F
MOSINEE        RAIN      55  55 100 MISG      29.97S
MARSHFIELD     LGT RAIN  57  53  86 SE12      29.93F
WISC RAPIDS    LGT RAIN  56  53  90 SE9       29.94F
STEVENS POINT  RAIN      54  52  95 E12G18    29.95F
WAUPACA        LGT RAIN  57  56  97 E6        29.97F
SHAWANO        DRIZZLE   57  55  94 E5        29.99F
CLINTONVILLE   DRIZZLE   54  54 100 E5        29.98F
$$

WIZ038-039-048-051-250300-
FOX VALLEY

CITY           SKY/WX    TMP DP  RH WIND       PRES   REMARKS
NWS GREEN BAY  RAIN      56  54  93 E7        29.99F FOG
APPLETON       LGT RAIN  55  55 100 E9        29.98F FOG
OSHKOSH        CLOUDY    57  54  89 E9        29.96S
FOND DU LAC    LGT RAIN  57  54  89 SE9       29.95F
$$

WIZ022-050-052-250300-
EAST CENTRAL WISCONSIN

CITY           SKY/WX    TMP DP  RH WIND       PRES   REMARKS
STURGEON BAY   CLOUDY    55  52  88 SE9       30.04F
MANITOWOC      RAIN      57  56  96 E15       29.97F FOG
SHEBOYGAN      HVY RAIN  56  54  93 SE9       29.97F FOG
$$

LMZ563-521-522-541>543-250300-
LAKESHORE

STATION/POSITION TIME  TEMP    WIND        PRES    VSBY  WAVE
                       AIR SEA DIR/SP/G                  HT/PER
                 (UTC) (F)     (DEG/KT/KT) (MB)    (MI)  (FT/S)
SHEBOYGAN LKSHOR 0200   51     360/  5/  6 1015.3F
KEWAUNEE LKSHORE 0100   50      60/  3/  5 1015.6F
NORTHPORT PIER   0100   54     160/  4/  6 1017.6F
N MID LAKE BUOY  0150   45 36   CALM  /  2 1017.9F         1/ 3
SISTER BAY LKSHO 0117   54      CALM  /  3   N/A
CHAMBERS ISLAND  0100   56     150/  2/  5 1017.3F
MENOMINEE LKSHOR 0100   54     130/  7/  8 1017.5F
$$



USA.gov is the U.S. government's official web portal to all federal, state and local government web resources and services.